Theta_e
338 336 334 333 332 331 330 330 330 331 331 330 329 329 328 328 326 326 325 324 324 323 321 321 319 319 319 319 318 317 315 316 313 312 313 313 312 310 308 307 307 307 307 306 306 306 306 306 307 308 308 308 307 306 306 302 299 300 299 297 296 296 296 296 295 294 295 296 296 298 301 302 303 304
336 335 333 332 332 332 330 329 329 329 329 328 328 328 328 328 327 326 326 324 324 323 321 321 320 319 318 318 318 317 317 316 313 313 313 312 313 311 308 308 308 308 308 307 306 305 305 305 306 307 307 308 307 307 304 300 297 297 297 297 297 296 296 296 295 294 294 295 295 296 298 299 299 300
334 333 332 331 331 330 328 328 327 326 325 325 327 327 327 328 327 327 326 324 324 323 322 321 320 319 318 318 318 316 317 315 312 313 313 312 313 311 309 309 309 308 309 308 307 306 305 305 305 305 306 306 306 304 300 297 296 297 297 297 297 297 296 295 295 295 295 295 295 295 295 295 295 296
333 333 332 330 330 329 326 325 324 324 322 322 324 325 327 327 327 327 326 324 324 323 322 321 319 319 318 318 317 316 317 315 312 312 313 313 312 311 311 311 310 310 310 309 308 306 306 305 304 305 305 305 305 301 296 296 297 297 297 297 297 297 296 295 294 295 296 296 296 296 295 295 294 294
332 332 331 330 329 328 326 324 323 322 321 321 322 324 325 326 326 326 326 325 325 324 322 320 319 319 318 318 317 316 316 315 313 312 313 313 312 311 311 312 312 311 310 309 308 306 306 304 302 302 303 303 304 299 296 296 297 297 297 297 297 297 296 295 294 294 295 296 296 296 297 296 295 294
330 330 330 329 327 326 325 324 323 322 321 321 321 323 324 325 325 326 324 325 324 324 322 321 319 319 318 317 317 316 315 314 313 313 313 312 312 312 311 311 312 311 309 309 307 306 306 303 300 301 301 303 302 298 296 297 297 297 297 297 297 297 297 296 294 294 294 295 295 296 296 296 296 296
329 329 329 327 326 324 324 324 323 322 321 321 321 322 323 324 325 325 324 324 324 323 321 320 319 318 318 317 316 315 315 314 314 314 313 313 312 312 311 311 311 310 309 308 307 306 304 301 300 302 302 303 302 298 296 298 298 298 298 297 297 297 297 295 294 294 294 294 294 295 295 296 296 296
328 329 327 326 324 324 324 323 322 322 321 320 321 321 321 321 323 324 324 324 324 321 320 319 319 318 317 317 316 315 315 314 314 313 313 313 312 311 311 311 310 309 307 306 305 304 302 300 301 303 303 302 301 299 298 298 298 298 298 297 297 297 297 296 295 295 294 294 295 294 295 295 295 296
328 327 325 324 323 323 323 322 321 321 321 320 320 320 319 318 320 322 322 322 322 321 320 319 318 317 317 317 316 315 315 314 313 313 312 312 312 311 310 310 310 308 307 307 305 304 302 300 300 302 302 301 301 300 300 299 299 298 298 297 297 297 297 296 295 295 295 295 295 295 295 295 295 295
326 325 324 324 322 322 322 322 321 320 320 320 320 320 319 317 318 319 319 320 321 321 320 318 317 317 317 316 315 314 314 314 314 313 313 311 311 311 310 310 309 308 308 308 307 306 306 304 301 301 302 301 301 301 300 299 298 298 297 297 297 297 297 296 295 295 295 295 295 295 295 295 295 295
324 323 323 322 321 321 321 321 321 320 320 320 320 319 319 317 316 317 318 319 320 320 320 318 317 317 316 316 315 314 313 312 312 312 313 313 311 311 311 310 309 309 309 308 306 304 304 302 300 300 301 300 300 300 299 298 298 297 297 297 297 297 297 296 295 295 295 295 296 296 296 296 296 295
322 322 322 320 319 320 320 320 320 320 320 320 319 318 318 316 316 317 318 318 319 319 319 319 317 317 316 315 315 314 312 311 311 311 312 313 313 311 311 310 310 309 308 307 307 305 303 302 302 302 302 299 298 299 299 299 297 296 297 297 297 297 297 297 296 295 295 296 296 296 296 296 296 296
321 321 320 320 319 318 319 319 319 319 319 319 318 318 317 316 316 317 318 317 318 318 319 318 318 317 316 315 314 313 312 312 313 312 311 311 313 312 311 310 309 308 306 305 306 306 304 305 305 305 305 301 299 301 302 300 297 296 297 297 297 297 297 296 296 295 295 296 296 296 296 296 296 296
321 321 320 319 319 318 318 318 318 317 317 317 317 317 317 316 316 316 317 317 318 318 318 318 317 316 315 315 314 314 314 313 313 312 310 310 312 311 311 311 309 306 305 305 306 305 303 305 306 306 305 303 302 304 303 299 297 298 297 298 298 298 296 296 296 295 295 295 295 296 296 296 296 296
321 320 319 319 319 318 318 317 316 315 315 315 315 315 315 315 316 316 317 317 318 317 317 317 317 316 316 316 314 314 314 313 311 311 311 311 311 311 311 311 309 305 304 306 307 305 302 304 306 305 304 303 303 303 300 298 297 298 297 298 299 298 297 296 296 295 295 296 296 296 296 296 296 296
320 319 319 319 318 318 318 316 315 314 314 314 314 313 313 313 314 315 316 316 317 316 316 316 315 315 316 315 313 313 313 312 310 310 310 309 310 311 310 310 308 305 304 306 307 306 303 303 305 305 303 303 302 301 299 298 298 298 297 297 298 298 296 295 295 296 296 296 296 297 297 297 297 297
320 320 319 318 317 317 316 315 314 314 314 313 312 313 313 313 313 313 313 314 315 315 316 315 314 315 314 313 312 312 310 310 309 309 309 308 308 309 309 308 307 305 304 305 306 306 305 304 304 305 304 304 303 302 302 301 300 299 298 298 298 297 296 295 296 296 296 297 297 297 297 297 297 297
321 320 319 319 318 316 315 314 314 314 313 313 313 313 313 313 312 313 313 313 313 314 314 313 313 314 312 311 311 310 308 309 310 309 308 308 307 308 307 306 305 304 303 303 305 306 306 304 304 305 305 304 304 304 303 302 301 299 298 297 298 297 295 295 296 296 296 297 296 297 297 296 297 297
321 320 320 319 317 315 314 311 311 313 314 313 314 313 313 313 312 312 313 312 312 313 312 313 313 312 311 311 309 308 307 307 306 305 305 305 305 305 304 303 303 303 303 303 304 305 305 304 304 304 304 304 304 304 303 303 303 300 297 297 297 296 295 295 296 296 296 297 297 297 297 296 297 297
321 320 319 317 314 313 310 303 304 311 314 313 314 313 312 312 311 310 310 310 311 311 311 310 309 308 307 307 306 306 306 305 303 303 303 304 304 305 305 305 305 305 304 304 304 304 304 304 304 304 304 304 304 303 303 304 303 301 298 297 297 296 295 295 296 296 297 296 296 296 296 296 296 296
319 317 315 313 312 312 307 299 302 311 314 314 314 313 312 311 309 306 305 304 305 304 303 303 303 301 301 302 302 303 304 305 306 306 305 305 306 306 306 305 305 304 305 304 303 304 304 304 304 304 303 303 303 304 304 304 303 302 300 299 298 297 296 295 296 297 297 297 297 296 296 296 296 297
317 313 310 310 312 309 303 299 304 310 313 313 314 313 312 312 310 306 302 300 299 298 298 298 299 300 300 300 301 301 302 304 305 307 306 305 305 305 304 305 304 304 305 304 302 303 304 303 303 304 303 302 302 303 304 303 302 302 302 300 299 299 298 297 297 298 298 297 297 297 296 296 295 296
314 310 307 309 310 305 299 300 305 310 312 313 313 312 312 311 309 307 303 302 301 301 301 301 301 301 302 303 302 301 301 302 303 304 305 305 305 304 304 304 304 304 306 304 301 302 303 302 302 302 302 302 302 302 302 302 302 302 301 300 300 300 299 299 299 299 299 298 298 297 297 296 295 295
313 310 308 307 306 303 301 301 305 309 311 312 312 312 312 311 309 307 306 306 306 306 306 305 305 305 305 305 304 302 301 301 301 301 302 303 304 305 304 304 303 304 305 303 299 300 301 301 301 301 300 301 302 301 301 301 301 302 301 300 300 300 300 300 300 299 299 298 298 298 297 296 295 295
314 312 310 307 305 306 305 304 304 307 309 310 310 311 310 309 308 308 308 308 308 308 308 308 307 307 307 307 306 305 304 304 303 302 301 301 301 303 303 304 304 304 303 300 297 299 301 301 301 301 300 300 300 300 299 300 300 301 301 300 299 300 300 300 299 299 299 298 298 298 297 296 295 294
316 314 311 308 306 308 308 306 305 305 306 308 309 309 308 307 307 308 308 308 308 308 308 307 307 307 306 306 307 306 305 303 302 302 301 300 300 300 300 301 302 303 303 300 297 299 301 301 301 301 300 299 299 298 299 299 299 300 300 300 299 299 300 300 299 299 298 298 297 297 297 296 295 294
316 314 311 308 308 308 308 308 306 304 304 305 305 304 304 305 307 308 308 308 308 307 307 307 306 306 306 305 305 305 303 301 300 301 300 300 300 299 299 299 300 300 301 299 298 299 301 300 300 300 299 299 298 299 299 299 299 299 299 299 299 299 299 299 298 298 297 296 295 295 295 296 295 294
315 314 311 308 308 308 308 308 308 306 305 303 302 303 304 305 307 308 308 308 307 306 307 307 306 306 305 305 304 303 301 300 300 300 299 299 299 299 299 299 299 298 298 297 296 297 297 298 298 298 298 299 299 300 300 299 299 299 299 299 299 299 299 298 297 296 295 294 293 293 293 294 294 294
314 313 311 308 308 309 308 308 307 307 306 305 304 304 305 306 307 308 308 307 306 306 306 306 305 304 303 303 302 301 301 301 300 300 300 300 299 299 299 298 297 296 295 294 295 296 296 297 297 297 298 299 299 299 299 299 299 299 299 299 299 298 297 297 295 294 293 292 292 292 292 292 293 293
313 311 309 308 308 308 308 307 306 305 306 306 305 305 305 307 308 307 307 306 306 305 305 305 304 303 302 301 300 301 302 302 302 302 301 300 300 300 299 299 297 296 294 294 295 296 297 297 296 296 298 299 299 299 300 299 299 299 299 298 297 296 296 295 293 292 292 291 290 291 291 291 291 292
311 309 308 308 308 308 307 305 305 305 305 306 306 306 306 307 308 307 307 306 306 305 305 304 303 302 301 301 301 302 302 302 301 300 300 300 300 299 299 299 299 298 297 297 296 296 296 296 296 297 298 299 299 299 299 299 299 299 298 296 295 294 294 293 292 291 291 290 290 290 290 290 290 291
310 308 308 308 308 307 305 303 303 303 303 305 306 306 307 308 308 307 306 306 305 305 304 303 302 302 302 301 301 300 301 300 300 300 300 300 299 298 297 298 297 297 298 299 298 297 297 296 297 297 298 298 298 298 297 297 297 296 294 293 293 293 292 291 291 290 290 289 289 289 289 289 289 290
309 307 307 308 307 305 303 303 302 301 301 303 305 305 306 307 307 306 306 305 305 304 303 303 303 302 301 300 300 299 299 299 299 299 299 299 298 297 297 297 297 297 297 298 298 297 297 297 297 297 298 296 295 295 295 295 295 293 291 291 291 291 290 290 290 289 289 288 288 288 288 288 288 289
308 307 307 307 305 304 302 302 301 300 301 303 304 304 306 306 306 306 305 304 304 303 303 303 302 301 300 300 299 299 299 299 298 298 298 298 297 297 297 298 298 297 297 298 297 296 295 295 295 296 297 296 294 293 292 292 292 291 289 289 289 289 289 288 288 288 288 287 287 287 287 287 287 287
307 306 306 304 304 303 301 300 299 301 303 304 304 305 305 305 305 304 303 303 302 302 301 301 300 300 300 299 298 298 298 298 298 297 297 298 298 298 298 298 298 297 297 297 296 294 293 292 292 292 294 295 294 292 290 290 290 290 288 287 288 288 287 287 287 287 287 286 286 286 286 286 286 286
306 305 304 303 302 301 299 299 300 302 304 304 304 304 303 302 303 303 302 302 301 301 300 300 299 299 298 297 297 298 297 297 298 297 298 298 298 298 297 297 297 297 296 295 293 291 290 290 290 290 291 292 292 292 290 288 288 288 286 285 285 286 285 285 286 286 285 285 285 285 285 285 285 285
304 303 303 302 300 299 299 300 302 303 303 303 303 302 301 301 302 302 302 302 301 300 300 299 298 298 297 296 297 297 297 297 297 297 297 298 297 297 297 297 296 295 294 292 291 290 290 290 289 289 290 291 290 290 290 288 287 286 285 283 283 283 283 284 284 284 284 283 283 283 283 284 284 284
303 302 301 300 299 299 300 302 302 302 302 302 302 302 302 302 302 302 301 301 300 299 298 297 296 296 296 297 297 297 297 297 297 296 297 297 297 296 295 294 293 292 291 291 290 290 289 289 288 288 289 289 289 289 289 289 287 285 283 282 282 281 281 282 282 282 282 282 282 282 282 282 283 282
302 301 300 299 299 300 301 302 302 302 302 302 302 302 302 302 301 301 300 299 298 297 296 295 294 294 295 296 297 297 297 296 296 295 295 294 293 292 291 291 291 290 290 290 290 289 288 287 286 286 287 288 288 288 288 289 288 285 283 282 281 280 280 280 280 281 281 280 280 280 281 281 281 281
302 301 300 299 299 300 301 301 301 301 302 302 302 302 301 301 301 300 299 298 297 296 295 294 294 295 295 296 296 296 295 295 294 293 291 289 288 288 289 289 289 290 289 289 289 289 288 287 285 284 286 287 286 286 287 288 287 285 284 282 281 280 279 279 279 280 280 279 279 279 279 280 280 280
301 300 300 299 299 300 301 301 301 301 302 302 302 301 300 300 299 298 298 297 295 294 294 294 295 295 295 295 295 295 294 293 292 291 289 288 286 286 287 288 289 288 288 288 288 287 287 286 284 284 285 285 285 285 286 286 285 284 283 282 281 280 279 279 278 279 279 278 278 278 277 278 278 278
300 299 298 299 299 300 301 301 301 301 302 302 301 300 299 298 298 297 296 296 295 295 295 295 295 295 294 294 294 293 291 290 289 288 288 288 288 287 287 287 287 287 287 287 287 286 285 285 284 284 284 284 283 284 284 284 284 283 282 282 281 280 280 279 278 278 278 278 278 277 276 276 276 277
298 298 298 299 299 300 301 301 301 301 301 301 301 300 300 299 298 297 296 295 295 295 295 294 294 294 293 292 291 290 289 288 287 287 287 287 287 287 286 286 286 286 286 286 286 285 285 284 284 284 284 283 283 283 283 282 283 282 282 281 280 280 280 279 279 278 278 278 277 277 276 275 275 276
299 299 300 300 300 300 301 301 301 301 301 300 301 300 299 298 297 295 295 295 295 294 294 293 293 292 291 289 289 288 287 287 286 286 286 285 285 285 285 285 285 285 285 285 285 284 284 284 283 283 283 282 282 282 282 281 282 282 281 280 279 279 279 279 279 279 279 279 278 278 277 276 275 275
300 300 300 301 301 301 300 300 300 300 300 300 299 298 297 296 295 294 294 294 294 293 293 292 291 290 289 288 287 286 286 285 286 285 285 285 285 285 284 284 284 284 284 283 283 283 283 283 283 283 282 282 282 282 281 281 281 281 281 280 279 279 279 279 278 279 279 279 279 278 277 276 275 275
Wind_Speed
14 15 18 17 14 15 17 14 11 10 10 10 11 14 14 10 6 5 6 6 8 11 12 10 10 11 10 9 9 8 7 9 8 7 7 7 7 7 4 3 1 1 2 4 5 5 3 2 3 3 3 4 6 8 9 9 9 11 13 15 16 18 18 19 19 19 19 20 19 19 19 19 19 19
15 16 18 17 13 12 14 12 11 11 10 10 11 13 13 12 9 6 5 5 7 10 11 10 9 10 11 10 9 7 7 8 7 9 8 7 9 9 6 4 3 2 3 5 5 5 5 3 3 3 3 3 4 6 7 6 7 9 11 13 15 16 17 18 19 19 19 19 19 19 19 19 19 20
16 16 16 15 12 12 14 14 14 15 14 11 10 11 13 12 12 10 6 5 7 8 10 10 9 9 11 11 9 7 7 7 8 9 8 9 11 10 8 6 5 5 5 6 6 6 7 5 4 4 3 3 3 4 5 3 5 8 9 12 13 15 16 17 17 17 18 19 19 19 20 20 20 21
16 15 15 15 13 14 16 15 15 16 15 13 11 10 12 12 12 11 8 6 5 8 9 10 9 9 11 10 9 8 6 6 8 9 8 10 11 9 9 9 8 7 8 9 8 7 7 7 5 5 5 4 4 4 4 2 4 7 8 10 12 13 15 16 16 16 16 17 18 18 19 20 20 21
16 15 15 14 13 13 14 14 14 13 12 12 10 10 11 11 11 10 10 8 5 7 8 9 9 10 11 10 9 8 6 6 8 8 8 9 9 8 7 8 8 7 8 9 9 8 8 8 7 6 6 5 4 3 3 1 3 6 7 8 11 12 14 15 15 15 15 16 16 17 18 19 20 20
15 15 14 14 14 14 12 11 11 10 8 8 8 9 9 9 9 9 10 9 7 7 8 8 10 11 12 10 8 8 7 6 6 8 9 8 8 8 6 5 7 6 7 8 9 8 8 9 8 7 5 4 4 2 1 1 2 5 6 7 10 11 13 14 15 15 15 15 16 17 17 18 19 19
16 15 13 11 14 14 11 9 9 7 7 6 6 6 6 7 8 8 9 9 7 7 9 10 10 11 12 10 7 8 8 6 6 7 8 8 7 7 7 6 5 6 8 8 8 8 8 8 6 5 1 4 4 2 1 1 3 5 6 7 9 10 12 14 14 14 14 15 16 17 17 18 18 19
13 13 11 9 10 11 8 8 8 7 7 6 4 4 4 5 6 6 9 10 8 7 8 10 10 9 10 9 8 8 7 7 6 6 7 7 7 7 6 5 5 6 8 8 7 7 7 6 4 1 2 4 4 3 1 2 4 5 5 6 8 9 11 13 14 14 14 14 15 17 17 18 18 19
13 13 12 10 10 10 8 8 8 8 8 6 5 4 4 5 5 6 8 9 10 9 8 9 10 9 9 9 9 9 8 6 6 6 7 7 7 7 6 5 4 6 8 7 6 6 6 4 2 2 3 3 4 4 3 4 5 5 4 5 7 8 9 12 13 13 13 14 15 17 18 18 19 20
16 14 11 10 11 11 9 9 9 9 8 7 5 4 4 4 4 6 7 9 10 10 9 9 10 10 10 9 9 9 8 6 6 7 7 7 7 7 7 6 5 4 5 5 5 5 4 3 2 3 3 3 4 4 4 4 5 5 4 4 6 7 8 10 12 12 13 14 15 17 18 19 20 20
15 14 12 10 12 11 10 10 9 9 9 7 6 5 4 4 4 6 7 8 9 10 10 9 10 11 11 9 8 8 7 6 6 7 7 8 8 8 7 6 5 4 4 5 6 5 5 5 4 2 2 2 3 3 2 3 5 5 4 4 5 6 7 9 11 12 13 14 16 17 19 20 21 21
13 14 13 11 11 11 10 10 9 9 9 7 6 5 4 4 5 6 7 8 9 9 9 9 9 9 9 9 7 6 6 7 7 8 8 7 7 7 6 6 5 4 4 5 5 3 3 5 3 3 3 2 2 1 0 3 4 3 3 3 5 6 8 9 10 12 13 14 16 17 18 19 20 21
14 13 13 12 12 12 11 10 9 10 9 8 7 6 5 5 5 6 6 7 9 9 9 8 8 8 8 8 7 7 7 6 5 5 6 6 5 5 5 5 4 4 5 4 4 2 2 4 5 5 5 4 2 2 1 1 3 2 2 3 4 7 9 9 10 12 13 14 15 16 18 19 20 21
13 13 13 13 13 13 13 12 11 11 10 10 8 7 6 6 5 6 6 7 7 7 7 8 8 7 7 7 7 6 6 5 4 4 5 6 5 4 5 5 3 3 4 4 3 2 2 3 4 5 5 3 3 3 2 1 3 3 4 5 6 7 9 10 10 12 13 14 16 17 18 20 21 21
15 14 15 15 15 14 13 13 12 11 10 10 10 8 7 8 8 6 6 6 6 5 6 6 7 7 6 6 6 5 4 4 4 4 4 4 4 4 5 4 3 2 2 4 3 2 1 3 4 4 3 3 2 2 2 3 4 4 6 7 7 8 8 9 10 12 14 15 17 18 20 21 22 22
16 15 15 16 15 14 13 12 12 11 10 10 10 9 9 10 10 8 6 5 4 5 7 7 6 5 4 5 5 4 3 3 3 3 3 3 3 3 3 3 2 3 0 4 4 2 1 3 5 4 3 3 4 3 3 4 4 6 8 8 8 8 8 9 10 12 14 16 18 19 20 21 22 23
14 14 14 14 14 12 12 12 11 11 10 10 10 10 8 9 10 10 9 8 5 3 5 7 6 5 4 5 5 3 2 2 3 3 3 2 2 2 1 1 4 4 0 3 5 3 1 2 5 5 4 4 5 6 5 5 7 8 9 9 8 7 8 9 10 12 14 16 19 20 20 22 22 23
12 12 11 11 11 11 10 10 9 9 9 9 9 8 7 6 7 8 8 8 8 5 4 5 4 1 2 4 4 4 4 3 3 2 2 3 2 2 2 3 4 3 2 4 6 5 2 2 6 6 5 5 6 7 9 8 8 9 9 10 8 8 8 8 10 13 15 17 19 20 21 22 23 24
11 10 9 8 8 8 8 9 9 8 8 8 8 8 7 5 5 6 6 7 8 6 5 4 2 3 5 6 7 7 6 4 4 4 4 5 5 5 5 4 3 3 2 4 6 7 4 4 6 8 7 8 9 8 10 9 6 8 9 10 9 9 8 9 11 14 16 18 20 20 21 23 24 25
10 9 8 7 7 7 7 9 11 11 10 9 9 9 9 7 6 7 8 7 7 7 6 6 6 6 8 10 11 11 10 8 6 6 6 6 4 4 4 3 3 3 3 5 7 8 7 6 8 9 10 10 10 9 5 4 6 11 10 9 10 10 9 10 13 15 17 19 20 21 22 24 25 26
9 8 7 7 7 8 8 10 14 15 12 10 10 11 10 9 9 9 8 7 5 5 5 6 7 8 10 12 13 13 13 10 6 5 5 4 2 1 3 4 2 1 3 4 7 9 7 8 9 9 11 11 10 8 4 3 10 12 9 8 11 11 10 13 15 16 18 21 21 21 22 24 26 24
9 8 9 8 6 8 9 11 15 16 12 10 11 11 12 11 10 11 11 11 10 10 11 12 12 13 14 14 13 12 12 9 7 7 6 5 4 4 5 4 3 1 5 5 7 7 7 9 9 8 10 11 10 9 7 8 11 10 7 9 12 11 12 15 16 16 17 19 20 19 21 25 25 22
9 10 11 10 8 9 11 13 16 15 11 8 10 11 11 11 11 12 12 13 14 14 14 14 14 14 13 11 10 10 9 8 9 10 7 4 3 4 4 3 2 2 5 4 6 5 5 8 9 9 9 8 8 10 10 10 11 9 8 10 11 11 14 17 17 15 15 19 19 17 20 25 23 20
11 11 10 10 10 11 13 15 16 15 11 9 9 10 9 10 12 13 13 13 12 12 11 11 11 10 9 8 7 8 8 8 8 8 6 5 4 2 2 2 1 1 3 4 6 5 5 7 7 8 8 6 7 10 10 11 11 9 8 11 12 14 14 15 16 15 16 19 19 17 20 22 19 19
13 12 11 12 13 13 15 15 15 15 14 11 8 8 9 12 14 13 13 13 11 10 9 9 8 8 7 7 6 6 7 6 6 5 5 4 3 1 1 0 1 1 1 4 6 4 4 5 5 7 7 6 8 11 12 12 11 8 8 10 12 14 14 14 16 15 16 18 17 18 20 18 15 19
13 12 13 15 16 15 15 15 15 15 14 11 8 9 12 16 16 13 12 12 10 8 8 7 7 7 7 7 7 6 6 6 5 4 2 2 3 3 3 3 2 2 1 5 6 4 3 5 5 7 8 8 9 11 11 12 10 10 11 11 11 13 14 15 16 15 16 17 17 19 21 15 13 20
13 14 16 19 19 17 16 16 15 14 13 12 11 13 16 18 16 12 9 9 8 7 8 8 9 9 8 9 8 7 6 6 4 2 3 4 6 6 5 4 2 2 3 4 4 2 3 5 6 7 7 8 9 10 10 11 11 12 14 12 11 13 14 14 15 15 15 18 18 20 19 14 13 19
16 18 20 21 20 18 16 15 14 13 12 12 15 17 18 17 13 9 8 8 8 8 9 9 9 9 8 7 7 6 6 5 4 5 7 7 6 5 3 2 2 4 3 2 2 2 3 4 5 6 7 8 9 10 10 12 13 14 15 14 13 15 14 14 15 15 15 18 19 19 18 16 16 16
18 19 20 21 20 18 16 14 13 12 12 13 15 17 16 13 9 7 8 8 8 9 9 9 8 7 6 6 6 6 7 7 7 7 6 4 3 2 0 2 3 4 2 1 2 3 4 5 6 7 7 7 9 11 12 13 14 15 16 15 15 16 14 14 15 15 15 18 19 17 17 18 17 15
16 18 19 20 19 17 15 14 13 13 13 14 14 15 14 11 8 8 8 7 8 9 8 8 7 8 8 8 8 8 7 5 4 3 2 2 2 1 2 3 2 1 2 3 3 4 5 6 7 8 8 8 9 10 12 13 14 15 15 14 15 14 13 13 15 15 16 18 19 18 17 17 17 15
17 19 20 19 18 16 14 14 14 13 12 12 14 15 13 10 7 7 7 6 8 9 7 7 8 8 7 6 5 4 3 3 3 2 1 1 1 0 1 1 1 1 1 2 4 6 7 8 9 7 6 8 9 9 11 12 13 13 13 12 12 13 13 14 15 15 17 19 19 18 17 17 17 15
18 20 21 20 18 16 15 14 13 13 12 11 11 12 11 8 8 8 6 6 8 9 8 8 8 6 5 3 3 3 3 3 2 1 0 1 2 2 2 3 3 2 2 1 4 7 8 9 9 6 4 6 7 8 10 11 9 10 12 12 12 12 13 15 15 16 18 18 17 17 17 17 17 16
20 23 24 23 21 19 16 13 12 12 11 9 8 8 8 8 8 9 8 7 9 9 9 8 6 4 3 3 3 3 3 3 2 1 2 2 3 3 3 3 4 4 5 4 5 7 8 8 8 6 4 4 6 6 7 9 9 10 13 13 12 12 13 15 16 17 18 17 17 18 17 16 17 16
22 25 25 24 22 19 16 14 13 11 9 8 8 8 8 8 9 9 9 9 10 9 7 5 3 3 3 4 3 2 3 3 2 2 2 2 2 3 4 4 3 3 5 5 6 8 9 9 9 7 4 4 3 1 3 6 9 10 12 13 12 13 14 15 16 17 17 17 17 18 17 16 16 16
24 25 24 23 20 17 16 16 15 12 8 7 8 8 8 10 11 11 11 10 9 8 5 4 4 4 4 4 4 3 3 3 3 2 1 2 2 3 3 4 3 3 4 5 7 9 10 11 12 10 5 4 3 4 6 7 9 11 13 14 14 14 15 16 17 16 16 16 16 17 17 17 17 17
23 23 23 21 19 18 18 17 14 10 9 10 11 13 16 17 14 12 11 9 7 6 6 6 5 4 3 3 3 4 4 3 3 3 3 3 3 3 3 3 3 4 5 6 8 9 10 10 11 11 10 8 5 1 5 6 7 10 13 14 14 15 16 17 17 16 16 16 17 17 17 17 18 17
21 22 22 22 21 21 19 16 13 12 13 16 17 18 19 17 12 10 10 8 7 7 7 5 5 4 3 3 4 5 5 4 4 4 4 4 4 4 3 4 4 5 5 6 7 8 9 10 10 11 10 8 7 5 3 4 5 11 15 15 14 16 17 17 16 16 16 16 17 17 18 18 18 18
21 22 22 22 22 21 18 14 13 15 17 18 17 15 13 11 10 10 10 9 8 8 6 6 6 6 6 5 5 5 5 5 5 5 5 5 5 5 5 5 5 6 5 5 6 7 8 10 10 11 11 8 6 7 6 4 4 11 16 17 16 16 17 17 16 16 16 17 17 18 18 18 18 19
21 23 24 24 23 20 17 14 15 17 18 17 15 12 11 11 11 12 11 10 9 8 7 7 8 8 7 6 6 5 5 5 5 6 6 6 6 6 6 6 6 5 5 6 6 7 8 10 11 11 11 9 9 9 11 10 7 8 11 15 17 15 15 16 16 16 16 17 18 19 18 18 18 19
21 22 23 22 20 18 16 16 18 19 18 15 13 12 12 13 14 14 13 11 9 8 9 9 9 8 7 6 6 6 6 6 6 7 7 8 8 7 6 6 5 5 5 6 6 7 8 9 10 11 9 10 11 12 10 9 7 7 9 13 17 17 15 13 14 14 15 16 18 18 19 19 19 19
20 21 20 20 19 18 17 18 19 18 16 14 13 13 14 15 16 15 13 10 10 10 10 10 9 7 7 6 6 6 6 6 7 7 7 7 8 8 7 6 6 6 6 5 6 7 7 7 9 11 10 9 11 11 8 7 8 9 9 11 16 19 18 16 15 13 12 14 16 17 18 19 19 19
22 22 21 20 19 18 18 18 17 15 14 14 14 15 16 16 15 14 12 11 11 10 10 9 8 7 7 7 6 6 7 7 8 8 7 6 6 7 7 7 6 6 6 5 6 7 7 8 9 10 9 9 10 10 9 8 9 10 10 10 14 16 16 17 19 18 15 14 13 14 17 19 18 17
22 21 20 20 20 20 19 17 15 13 13 15 16 18 18 16 13 12 12 11 10 10 9 8 7 7 7 7 7 7 8 8 8 8 8 7 6 6 7 7 6 6 5 5 5 6 7 8 9 9 8 9 9 9 9 8 8 9 10 11 14 14 13 15 19 19 17 14 12 11 15 18 17 16
21 20 20 20 20 20 17 15 14 15 17 19 20 19 18 16 14 14 12 11 9 8 8 8 8 8 7 7 8 8 8 8 8 7 7 7 7 6 5 5 5 6 7 6 6 6 6 7 8 8 8 9 8 8 8 9 8 8 9 11 13 14 14 15 17 16 13 12 11 13 17 21 22 21
19 19 19 18 17 16 15 16 19 21 22 21 20 18 17 16 16 14 12 10 8 8 8 9 8 8 8 7 8 9 8 8 7 7 6 6 5 5 5 4 4 6 7 7 7 7 7 7 7 6 7 8 8 7 7 8 8 7 7 10 13 14 14 15 17 16 13 12 13 16 21 24 24 23
Wind_Direction
213 213 215 214 215 223 225 225 231 235 232 232 229 221 217 221 221 204 206 213 206 201 196 191 197 205 201 197 208 216 216 221 217 206 218 221 213 221 221 199 211 15 13 4 8 5 349 330 332 329 336 344 344 353 357 3 19 24 25 30 31 30 31 32 33 32 30 25 23 23 22 19 16 11
210 209 212 212 206 210 216 216 220 226 228 227 225 224 224 228 235 233 220 213 207 202 199 196 199 202 200 201 207 213 216 222 216 212 227 229 219 233 241 229 253 295 326 338 344 354 355 335 313 309 316 321 323 340 345 357 25 30 31 32 29 27 28 28 29 30 31 29 26 25 24 22 20 20
209 206 205 203 198 205 212 212 219 227 230 226 223 227 228 228 234 240 244 228 200 193 202 209 210 203 200 203 209 211 218 231 225 217 226 228 229 242 249 249 281 299 303 316 319 330 345 338 310 300 310 304 291 318 333 354 29 30 30 29 26 25 24 24 25 25 28 29 27 27 26 23 22 23
206 201 198 197 197 207 212 214 222 228 230 228 223 227 229 227 230 230 238 244 188 175 202 212 208 205 201 202 209 211 217 235 229 218 223 234 239 247 250 257 282 298 300 304 303 309 327 332 315 293 296 293 270 294 329 0 30 28 28 26 22 21 20 19 20 21 24 25 24 24 25 23 22 23
205 200 198 195 193 200 204 210 219 222 226 229 223 226 229 227 229 224 229 243 206 181 206 207 196 198 199 197 204 211 218 230 226 219 225 236 241 239 245 256 264 279 300 303 296 298 315 326 321 299 287 268 243 277 331 11 33 26 23 21 19 18 17 15 16 17 19 20 18 19 21 21 20 21
200 198 197 190 189 192 192 197 209 211 215 220 217 223 228 227 229 222 224 239 222 196 203 197 183 185 192 197 204 215 226 231 226 223 224 229 232 231 241 251 248 269 300 300 290 293 308 319 322 313 287 226 214 258 335 32 33 22 15 16 16 15 14 12 13 16 17 16 15 15 17 17 16 16
196 194 189 180 185 190 182 180 190 192 196 208 214 217 221 226 229 223 223 233 226 203 200 199 190 182 187 201 212 216 224 229 228 228 222 222 226 229 237 242 245 275 294 290 284 292 306 318 327 329 258 189 202 234 16 33 12 4 3 11 14 13 11 10 13 16 16 15 15 14 15 14 12 11
191 182 175 168 183 190 176 166 173 176 181 193 201 207 216 223 229 226 221 225 224 212 204 207 207 194 189 200 210 212 221 226 226 229 221 217 223 228 232 232 241 271 283 283 282 290 302 313 321 317 186 193 217 238 294 339 338 339 350 6 9 8 6 7 12 16 17 16 15 15 14 12 10 9
185 176 176 177 184 185 174 166 169 172 177 182 184 200 220 223 226 227 221 220 221 217 210 207 208 203 197 198 204 208 215 219 216 219 219 216 219 223 226 227 243 272 282 284 292 302 311 320 308 217 212 226 231 245 277 301 317 323 334 355 359 0 0 3 11 14 14 14 13 13 13 11 10 9
179 178 179 177 176 177 176 174 171 172 177 179 177 189 216 228 228 227 220 213 212 213 213 205 202 204 198 193 197 203 210 219 218 213 209 211 216 218 224 225 229 255 267 266 284 293 283 284 279 226 223 241 237 248 273 290 312 319 320 340 347 351 354 359 6 10 9 10 9 10 10 9 9 8
180 183 182 177 175 174 176 175 173 174 177 180 185 192 212 230 227 221 212 205 205 208 209 203 201 203 199 195 200 201 205 221 231 225 214 209 210 213 223 231 230 241 253 257 267 263 235 237 246 227 228 246 236 236 267 296 317 318 309 325 338 343 347 352 358 2 1 2 3 5 6 6 6 5
184 183 182 186 187 181 178 178 178 179 179 183 190 196 208 216 215 214 204 196 199 202 203 203 202 199 195 196 198 194 200 219 228 225 223 222 217 210 212 224 239 258 272 267 264 265 244 230 220 212 207 180 168 175 277 310 319 320 304 319 336 338 341 344 348 351 352 355 358 359 1 3 4 4
180 176 174 183 191 188 184 187 192 192 186 184 188 195 203 206 209 211 200 193 196 196 200 203 199 197 198 197 196 196 206 220 217 205 216 229 228 215 213 216 233 270 288 273 248 245 247 227 214 216 204 180 201 216 164 309 318 330 318 327 337 337 340 341 341 343 346 348 351 354 356 358 359 0
176 175 174 179 183 182 180 185 196 200 193 188 190 192 193 195 203 211 209 204 199 195 201 203 200 205 206 198 198 204 206 213 211 199 209 222 216 214 228 217 198 243 285 277 246 223 236 233 221 216 207 202 235 221 183 254 293 299 304 308 315 323 335 339 336 340 345 345 348 350 351 353 354 355
178 179 181 182 183 182 180 184 193 196 192 192 198 203 200 197 203 212 213 206 201 205 213 210 206 214 213 199 201 209 206 207 216 211 208 221 219 216 237 236 177 166 262 278 257 209 190 254 239 215 215 224 214 201 221 273 290 301 305 305 305 311 327 336 337 342 346 345 346 347 347 348 348 350
181 183 187 188 188 188 186 189 196 197 192 190 199 208 208 205 212 225 225 213 207 219 224 221 219 223 221 211 212 224 222 200 198 203 203 227 241 231 252 270 116 113 151 290 281 229 168 271 260 227 222 227 207 213 259 294 302 304 311 313 309 310 324 336 339 343 346 346 346 345 345 345 345 347
181 184 187 189 194 196 191 194 202 204 201 197 198 202 205 210 220 225 223 220 224 242 239 231 229 232 232 229 223 217 203 173 182 202 197 193 218 229 239 59 82 93 57 314 304 272 212 300 283 261 248 251 240 236 254 301 314 307 311 317 313 312 327 337 341 345 348 347 346 345 344 344 344 345
182 185 183 186 198 201 195 197 201 199 199 197 193 193 198 210 218 215 211 213 218 232 247 239 230 198 203 215 196 167 157 160 177 191 160 144 144 125 102 85 79 83 39 344 312 291 295 336 308 299 296 291 284 262 250 275 311 314 311 316 313 313 327 338 343 347 349 347 347 346 345 345 346 345
180 182 182 187 194 193 196 202 195 183 180 179 176 178 181 182 183 185 182 183 189 199 212 216 186 126 149 163 152 143 140 134 123 112 115 119 119 129 132 124 131 126 66 3 329 315 325 345 329 323 318 305 304 290 251 249 301 323 314 315 315 312 323 337 342 345 347 348 348 348 347 347 346 346
173 175 182 186 179 173 186 194 182 170 167 170 169 171 172 161 150 157 162 162 171 181 188 192 182 168 165 159 147 141 134 127 124 125 127 121 125 166 162 133 123 115 74 26 352 326 321 349 347 332 329 322 315 308 261 235 328 327 316 318 319 315 319 328 334 338 344 348 349 350 351 348 347 349
168 172 177 173 165 163 171 175 168 162 160 165 167 165 166 160 139 130 133 138 154 169 169 168 160 151 149 145 142 138 131 128 132 133 123 101 65 99 103 76 50 82 101 54 358 325 325 358 351 329 335 333 314 302 290 319 326 315 306 319 324 324 324 325 330 335 341 345 345 347 350 347 349 354
164 170 168 157 151 157 158 158 158 155 151 159 164 159 158 154 139 129 127 122 120 120 119 122 124 125 128 128 128 127 123 116 102 87 81 65 46 59 73 57 11 80 112 70 356 331 338 355 346 331 335 332 321 317 315 321 319 307 308 322 320 320 324 329 335 336 337 340 337 337 342 344 351 356
157 161 161 154 151 150 145 145 148 147 143 152 160 158 157 153 143 140 136 128 123 121 118 119 121 122 123 122 124 126 123 114 99 89 83 70 61 70 79 66 15 90 107 52 352 340 338 341 341 341 336 327 329 332 322 316 314 309 319 324 317 318 325 333 339 335 335 338 330 327 336 340 347 353
156 153 152 152 152 144 139 142 146 147 145 151 160 163 161 155 147 144 142 138 136 133 129 128 129 128 128 129 131 130 127 125 119 112 113 117 113 103 88 70 19 62 89 15 354 350 333 329 336 340 334 317 318 323 319 316 312 308 318 324 320 320 322 330 335 331 334 337 329 328 334 333 341 353
160 155 150 151 151 142 138 142 146 149 147 145 153 165 162 152 146 143 141 140 137 135 135 135 136 138 142 143 141 139 141 147 145 133 130 134 139 160 219 132 32 66 63 354 347 340 319 323 333 334 332 327 322 322 321 320 315 310 312 315 319 321 320 324 329 329 333 337 335 334 328 321 340 357
166 159 155 155 154 149 144 140 140 146 149 145 152 166 160 151 145 139 139 141 140 141 145 145 143 144 148 148 145 145 150 151 150 150 158 154 130 118 111 104 84 66 345 327 332 328 317 329 336 334 336 336 328 322 317 315 316 316 311 308 316 321 320 322 326 329 335 335 336 335 324 315 353 2
161 158 161 161 159 155 152 145 139 143 148 149 151 155 155 152 145 138 141 146 145 145 145 145 144 144 143 140 137 142 154 158 157 151 123 106 100 92 82 74 44 344 312 318 329 334 327 332 338 338 337 332 323 317 314 314 314 312 309 310 319 322 322 326 328 331 336 335 335 336 328 321 348 354
169 170 169 165 162 160 159 154 149 148 148 147 147 149 152 154 150 147 152 151 147 146 144 141 140 135 133 137 145 161 170 155 126 108 103 99 92 76 61 34 317 295 289 311 345 351 342 339 342 340 331 321 315 311 310 312 311 309 311 315 321 322 324 330 332 333 338 337 334 335 333 327 333 339
187 183 173 165 164 166 165 160 159 163 164 159 156 158 161 163 165 172 172 162 155 153 147 140 134 127 126 132 135 139 136 123 114 113 111 102 89 73 158 236 271 288 302 350 10 7 357 347 344 341 332 318 308 304 307 310 308 311 317 319 319 320 323 330 335 334 337 338 333 332 333 331 332 335
191 182 171 166 167 168 167 164 166 172 175 171 169 169 171 174 180 184 181 175 170 164 152 141 132 124 121 118 113 115 123 126 124 123 123 133 137 164 223 212 203 259 325 352 3 6 2 352 348 345 335 319 307 307 312 309 305 311 321 325 324 324 328 334 336 335 337 337 333 331 332 333 332 335
184 176 171 169 169 167 167 169 169 169 171 174 178 180 183 187 187 182 180 179 178 172 160 144 133 127 128 128 123 130 145 138 115 99 101 210 164 53 318 281 188 198 279 347 354 352 354 353 349 342 328 320 321 323 321 311 310 321 331 331 327 327 330 334 335 336 338 336 331 331 334 332 330 333
177 174 172 170 168 164 162 164 165 163 160 162 171 179 186 189 184 179 176 168 168 166 154 142 138 139 144 141 131 129 118 97 90 90 47 339 10 21 351 333 339 331 315 349 2 355 353 350 342 334 330 332 333 333 330 325 330 343 342 333 328 329 332 336 336 336 337 335 331 332 335 332 330 333
174 171 171 169 166 163 160 159 159 158 154 150 154 163 171 176 179 181 178 163 152 147 141 140 144 150 143 122 113 110 99 85 70 35 25 22 8 346 327 337 353 348 337 338 348 350 350 345 332 319 310 320 319 321 330 338 349 353 345 336 334 334 335 337 337 335 336 334 332 332 333 332 331 333
172 168 168 167 165 164 162 160 158 156 155 153 153 159 168 172 171 168 159 143 133 132 137 146 146 130 113 102 94 87 83 82 74 52 40 34 0 331 330 346 8 10 351 341 344 349 349 346 337 319 264 239 269 315 11 5 358 353 347 342 339 338 337 337 336 334 335 335 333 331 331 331 332 335
168 166 165 162 162 162 160 160 160 158 151 146 147 149 148 143 140 137 132 127 128 132 132 120 101 89 85 76 63 61 69 76 78 73 59 35 13 1 1 5 6 2 354 350 356 358 354 351 349 340 311 253 214 139 96 43 8 359 356 351 346 343 340 337 336 335 336 337 335 332 330 330 331 335
165 165 163 159 159 159 157 158 160 155 143 137 135 133 130 128 126 126 126 126 130 128 113 96 89 86 84 78 67 69 73 70 62 50 31 27 26 21 27 26 7 357 3 8 9 4 358 357 355 348 338 325 314 29 88 63 25 15 9 359 351 347 343 340 338 339 339 339 338 335 331 328 327 330
162 164 162 157 157 157 155 158 158 149 140 136 133 132 132 130 126 125 124 118 110 104 98 97 102 100 92 87 83 81 75 64 55 45 29 26 23 10 10 17 11 8 12 14 13 9 5 4 0 353 347 339 332 349 52 103 68 31 17 7 360 353 347 344 342 340 340 340 338 336 331 326 325 328
160 159 156 152 154 155 154 156 155 148 143 140 135 133 132 129 124 123 120 111 104 102 101 107 113 109 99 92 85 79 74 66 61 54 39 28 24 16 13 13 12 11 10 7 13 18 14 12 8 0 354 349 345 350 349 345 27 28 15 7 5 359 351 348 343 340 341 340 337 335 330 325 324 325
159 156 154 152 153 156 155 152 149 146 143 140 137 134 131 130 131 129 123 114 108 105 106 114 118 115 107 96 83 74 73 68 62 55 46 38 34 30 25 20 12 12 12 8 12 18 19 19 14 4 357 352 347 339 327 324 352 35 22 6 4 2 357 353 346 341 341 341 338 335 330 327 326 324
153 151 150 149 152 157 155 148 142 139 137 134 133 135 137 138 135 128 120 113 109 110 114 117 115 108 96 83 75 73 74 70 63 62 60 55 47 40 33 24 14 13 15 13 12 16 22 21 11 3 360 348 335 326 316 315 339 22 20 5 0 358 356 355 351 344 341 342 341 338 336 334 333 330
143 141 144 149 154 156 150 143 140 140 136 129 124 125 129 132 127 119 113 113 115 117 118 115 109 100 87 78 73 73 73 71 66 63 63 63 58 50 39 28 20 19 19 18 18 18 18 12 3 3 5 352 339 339 344 341 343 354 359 358 355 350 346 347 347 342 337 340 343 344 342 338 334 332
143 142 146 151 152 149 146 145 144 141 134 125 122 123 123 119 113 110 114 120 120 117 113 107 98 90 81 74 71 72 73 74 71 63 57 56 54 48 41 34 28 23 19 20 24 20 14 8 6 7 9 4 360 5 9 358 348 350 352 354 352 348 342 340 339 335 329 331 340 348 349 343 337 334
141 142 146 149 150 149 150 150 148 142 133 129 128 127 124 118 115 120 125 123 116 109 105 99 92 87 83 78 76 77 76 74 72 68 62 54 49 48 46 40 30 21 17 19 21 17 12 11 11 12 14 13 12 15 8 354 349 354 355 352 349 346 342 341 338 331 322 319 325 338 345 343 338 332
139 141 143 146 148 149 150 151 147 140 133 130 128 127 127 128 131 133 131 124 117 113 107 100 93 90 88 84 81 81 81 80 77 74 70 63 59 55 50 44 36 29 23 19 14 11 12 12 10 14 18 13 9 12 6 352 344 351 355 352 347 344 343 344 342 334 321 313 315 325 333 336 336 333
139 140 142 145 148 151 152 148 141 134 129 128 129 131 134 135 135 134 132 129 128 124 118 111 103 96 94 95 93 89 86 83 79 74 71 69 66 58 47 40 40 39 32 25 17 11 10 11 11 16 20 13 4 4 1 348 338 340 348 351 348 344 343 343 341 336 330 326 327 331 335 335 333 329